Regional Weather Roundup
Issued by NWS Green Bay, WI

Home | Current Version | Previous Version | Graphics & Text | Print | Product List | Glossary Off
Versions: 1 2 3 4 5 6 7 8 9 10 11 12 13 14 15 16 17 18 19 20 21 22 23 24 25 26 27 28 29 30 31 32 33 34 35 36 37 38 39 40 41 42 43 44 45 46 47 48 49 50

012
ASUS43 KGRB 030111
RWRGRB

NORTH-CENTRAL AND NORTHEAST WISCONSIN REGIONAL WEATHER ROUNDUP
NATIONAL WEATHER SERVICE GREEN BAY WI
800 PM CDT MON MAY 02 2016

WIZ005-009-010>012-018-019-030200-
NORTH CENTRAL WISCONSIN

CITY           SKY/WX    TMP DP  RH WIND       PRES   REMARKS
IRONWOOD         N/A     55  27  33 NW3       29.97S
MANITOWISH WTR CLEAR     56  31  39 CALM      29.99S
ARBOR VITAE    CLEAR     56  36  46 CALM      29.99S
EAGLE RIVER    MOCLDY    58  26  28 CALM      29.98S
LAND O LAKES   CLEAR     56  29  36 N5        30.00S
RHINELANDER    CLOUDY    57  31  37 CALM      29.99F
PHILLIPS       MOCLDY    58  34  41 CALM      29.98F
ANTIGO         MOCLDY    53  35  52 CALM      29.99S
TOMAHAWK       MOCLDY    53  38  55 CALM      30.00S
MERRILL        CLOUDY    57  37  45 CALM      30.00S
$$

WIZ013-073-030200-
NORTHEAST WISCONSIN

CITY           SKY/WX    TMP DP  RH WIND       PRES   REMARKS
IRON MOUNTAIN  CLOUDY    56  30  37 SE5       29.97S
MARINETTE      CLEAR     55  30  38 S5        30.00S
OCONTO         PTCLDY    54  36  51 S5        30.00R
$$

WIZ017-030-035>037-045-030200-
CENTRAL WISCONSIN

CITY           SKY/WX    TMP DP  RH WIND       PRES   REMARKS
MEDFORD        MOCLDY    55  39  54 CALM      30.00S
WAUSAU         PTCLDY    60  34  37 W3        29.98R
MOSINEE        CLEAR     57  34  41 NW8       30.01R
MARSHFIELD     CLEAR     59  33  37 W3        30.00R
WISC RAPIDS    CLEAR     58  31  35 NW3       30.01S
STEVENS POINT  MOCLDY    58  32  37 CALM      30.00S
WAUPACA        MOCLDY    60  32  34 S3        29.99S
SHAWANO        PTCLDY    59  32  36 S6        29.99R
CLINTONVILLE   CLOUDY    59  36  41 S5        29.99R
WAUTOMA        MOCLDY    59  32  36 S3        30.00S
$$

WIZ038-039-048-051-030200-
FOX VALLEY

CITY           SKY/WX    TMP DP  RH WIND       PRES   REMARKS
NWS GREEN BAY  CLEAR     55  37  50 SE8       30.00S
APPLETON       NOT AVBL
OSHKOSH        CLEAR     56  36  47 SE5       30.00S
FOND DU LAC    CLEAR     54  37  52 SE7       30.00S
$$

WIZ022-050-052-030200-
EAST CENTRAL WISCONSIN

CITY           SKY/WX    TMP DP  RH WIND       PRES   REMARKS
EPHRAIM        FAIR      53  32  45 CALM      30.00S
STURGEON BAY   CLEAR     54  30  40 SE3       30.03S
MANITOWOC      CLEAR     51  33  50 VRB6      30.01F
SHEBOYGAN      CLEAR     49  34  56 CALM      30.01F
$$

LMZ563-521-522-541>543-030200-
LAKESHORE

STATION/POSITION TIME  TEMP    WIND        PRES    VSBY  WAVE
                       AIR SEA DIR/SP/G                  HT/PER
                 (UTC) (F)     (DEG/KT/KT) (MB)    (MI)  (FT/S)
SHEBOYGAN LKSHOR 0100   49      20/  2/  2 1017.0R
KEWAUNEE LKSHORE 0000   52                 1015.5F
ALGOMA MARINA    0045             CALM       N/A
NORTHPORT PIER   0000   56     170/  4/  7 1015.9F
N MID LAKE BUOY  0050   45 39  240/  4/  6 1016.0F         0
CHAMBERS ISLAND  0040   56     150/  2/  4 1016.3S
MENOMINEE LKSHOR 0000   55                 1014.9F
$$




USA.gov is the U.S. government's official web portal to all federal, state and local government web resources and services.